This is the latest recevied weather packets stored in our database for station/object N9XRG. If no packets are shown the sender has not sent any weather packets the latest 10 day(s).
| Time | Temp. | Humidity | Pressure | Rain* | Wind** | Luminosity | Snow |
|---|---|---|---|---|---|---|---|
| 1777584549 | 13.33° C | 48% | 1014.8 hPa | 0 mm | - | 83 W/m² | - |
| 1777584246 | 13.89° C | 47% | 1014.9 hPa | 0 mm | - | 99 W/m² | - |
| 1777583944 | 13.89° C | 48% | 1014.7 hPa | 0 mm | - | 152 W/m² | - |
| 1777583640 | 14.44° C | 47% | 1014.7 hPa | 0 mm | - | 208 W/m² | - |
| 1777583340 | 14.44° C | 46% | 1014.6 hPa | 0 mm | - | 290 W/m² | - |
| 1777583035 | 14.44° C | 45% | 1014.9 hPa | 0 mm | - | 605 W/m² | - |
| 1777582732 | 14.44° C | 48% | 1014.6 hPa | 0 mm | - | 325 W/m² | - |
| 1777582427 | 13.89° C | 49% | 1014.9 hPa | 0 mm | - | 471 W/m² | - |
| 1777582121 | 13.33° C | 46% | 1014.9 hPa | 0 mm | - | 152 W/m² | - |
| 1777581820 | 13.89° C | 46% | 1014.9 hPa | 0 mm | - | 173 W/m² | - |
| 1777581519 | 13.33° C | 47% | 1014.9 hPa | 0 mm | - | 213 W/m² | - |
| 1777581215 | 13.33° C | 46% | 1015.2 hPa | 0 mm | - | 209 W/m² | - |
| 1777580910 | 13.33° C | 46% | 1015 hPa | 0 mm | - | 180 W/m² | - |
| 1777580609 | 13.89° C | 45% | 1015.1 hPa | 0 mm | - | 174 W/m² | - |
| 1777580306 | 15° C | 44% | 1014.9 hPa | 0 mm | - | 235 W/m² | - |
| 1777580003 | 14.44° C | 43% | 1014.8 hPa | 0 mm | - | 770 W/m² | - |
| 1777579698 | 14.44° C | 44% | 1015 hPa | 0 mm | - | 271 W/m² | - |
| 1777579397 | 14.44° C | 44% | 1015.1 hPa | 0 mm | - | 440 W/m² | - |
| 1777579092 | 13.89° C | 46% | 1015.1 hPa | 0 mm | - | 286 W/m² | - |
| 1777578792 | 14.44° C | 42% | 1015 hPa | 0 mm | - | 204 W/m² | - |
| 1777578488 | 14.44° C | 44% | 1015 hPa | 0 mm | - | 194 W/m² | - |
| 1777578183 | 15° C | 41% | 1014.9 hPa | 0 mm | - | 306 W/m² | - |
| 1777577878 | 14.44° C | 42% | 1015.1 hPa | 0 mm | - | 242 W/m² | - |
| 1777577574 | 14.44° C | 45% | 1015.3 hPa | 0 mm | - | 214 W/m² | - |
| 1777577271 | 14.44° C | 42% | 1015.3 hPa | 0 mm | - | 893 W/m² | - |
* Rain latest hour (hover to see other rain measurements)
** Current wind speed in m/s (hover to see current wind gust speed)